STARLINK-36858, 68021

Orbit data source: Space-Track

STARLINK-36858, 68021 is a payload satellite owned by SpaceX/Seattle (US) in SSO that was launched on Sun, 01 Mar 2026 UTC via an FALCON 9 launch vehicle from the Air Force Western Test Range (AFWTR). Payload-class satellites include a variety of spacecraft equipped with specific instruments for various scientific and technological missions. These include communications satellites like Starlink; space stations such as the ISS; scientific satellites like the Hubble; Earth observation satellites from companies like Planet Labs, Umbra, and HawkEye 360; GPS; miniature CubeSats for education and research; and military/defense satellites.

Loading next visibility...
Identifier
68021, 2026-040G
Orbit
SSO
Country
Flag of USUS
Related business
Manufacturer
SpaceX/Seattle
Mission
Operational Commercial Communications
Bus & Motor
STARLINK V2MO, Unknown motor
Mass
575 kg wet, ~530 kg dry
Launch date (UTC)
2026-03-01 (4 months ago)
Launch vehicle
FALCON 9
Launch site
Air Force Western Test Range (AFWTR)
Object type
Payload
Rocket body
Debris
Shape & HBR
Box + 2 Pan, 17.7 m
Radar Cross Section
36.964 m², Large (>1 m²)

Expand to show TLE details & history
Last TLE update: 11 hours ago

TLE from 11 hours ago
0 STARLINK-36858
1 68021U 26040G   26171.40970634 -.00049174  00000-0 -15315-2 0  9993
2 68021  97.2845 120.0348 0001575 106.5429 253.5987 15.33428832 17238
Epoch: 2026-06-20T09:49Z
TLE epoch observation values (Epoch: 2026-06-20T09:49:58.627Z)
Latitude
-0.00003°
Longitude
63.91579°
Altitude
469.008 km
Speed
7.632 km/s
True Right ascension
08h 00m 08s
True Declination
0° 00' 00"
Sunlit
Object was in daylight at epoch
Visualization orbit readout
Latitude
Unknown
Longitude
Unknown
Altitude
Unknown
Speed
Unknown
Apparent Right ascension
Unknown
Apparent Declination
Unknown
Sunlit
N/A
Visualization observer readout
Local Sidereal Time
07:16:57
Azimuth
Unknown
Elevation
Unknown
Doppler factor
Unknown
Orbital elements
Apogee altitude
463.611 km
Perigee altitude
461.457 km
Semi-major axis
6,840.671 km
Eccentricity
0.00016
Inclination
97.2845°
RAAN
120.0348°
Arg. of periapsis
106.5429°
True anomaly
253.58139°
Mean anomaly
253.5987°
Eccentric anomaly
253.59004°
Mean motion
3.83615 °/min
Orbital period
93.84 mins
BSTAR
-0.0015315
Loading maneuver chart data...
Computing Atmospheric mass density...
Loading historical data...
Loading historical data...
Loading historical data...
Loading historical data...
Loading historical data...
Loading historical data...
Loading historical data...

Documentation

Showing up to 5 results
|